Retour au catalogue

TIANLIAN-3 01

ActifCommunicationsGEO
NORAD 100172·PAYLOAD·🇨🇳 China

Lancé Jul 29, 2026 depuis Wenchang Space Launch Site

Loading…

TLE

FraisSource: Space-Track

Époque: Sep 14, 2026, 09:07 UTC

1 A0172U 26172A   26257.37993850 -.00000271  00000-0  00000-0 0  9995
2 A0172   0.0757   8.9886 0001310 123.7759  91.4966  1.00268260   470

Suivez TIANLIAN-3 01 en temps réel avec AllMySat

Download on the App Store